Location: Bannatyne
(13.0833°N, 59.5333°W)
Time: 14:12:15
(UTC+00:00)

Vanguard 2 Rocket - Pass Details

Date: 23 January 2020
Orbit: 554 x 3326 km, 32.9° (Epoch: 29 March)

Event Time Altitude Azimuth Distance (km) Brightness Sun altitude
Rises 20:36:17 0° 252° (WSW) 7,118 13.2 16.8°
Reaches altitude 10° 20:49:10 10° 219° (SW) 6,274 12.5 14.0°
Maximum altitude 20:52:15 11° 210° (SSW) 6,194 12.2 13.3°
Drops below altitude 10° 20:55:19 10° 201° (SSW) 6,168 11.9 12.6°
Sets 21:07:30 0° 166° (SSE) 6,609 11.4 9.9°
